Back to catalog

THORAD AGENA D DEB

AlivePO
NORAD 4857·DEBRIS·🇺🇸 United States

Launched Apr 8, 1970 from Vandenberg Space Force Base

Loading…

Next Passes (next 24 hours)

TLE

FreshSource: Space-Track

Epoch: Sep 14, 2026, 05:23 UTC

1 04857U 70025EM  26257.22433975  .00001681  00000-0  66324-3 0  9995
2 04857  99.7322 173.4454 0042200 211.8569 148.0056 14.30198192835688

Track THORAD AGENA D DEB in real time with AllMySat

Download on the App Store